GW1550 Weather Reports


time (UTC)temp
C
wind
direction
speed
KPH
gust
KPH
rain 1hr
cm
rain 24hr
cm
rain mn
cm
humidity
%
barometer
mb
20260505140259 8 61 1.6 3.2 0.00 0.00 0.00 74
20260505130223 8 84 1.6 1.6 0.00 0.00 0.00 73
20260505124713 8 88 1.6 1.6 0.00 0.00 0.00 73
20260505124209 8 93 0.0 1.6 0.00 0.00 0.00 72
20260505123705 8 85 1.6 1.6 0.00 0.00 0.00 72
20260505123202 8 87 1.6 1.6 0.00 0.00 0.00 72
20260505122659 8 83 0.0 1.6 0.00 0.00 0.00 72
20260505122156 7 95 0.0 1.6 0.00 0.00 0.00 73
20260505121653 7 58 0.0 0.0 0.00 0.00 0.00 74
20260505121149 7 73 0.0 0.0 0.00 0.00 0.00 74
20260505120645 7 99 0.0 0.0 0.00 0.00 0.00 74
20260505120141 7 77 0.0 0.0 0.00 0.00 0.00 73
20260505115635 7 82 0.0 0.0 0.00 0.00 0.00 73
20260505115133 7 104 0.0 0.0 0.00 0.00 0.00 73
20260505114630 8 88 0.0 0.0 0.00 0.00 0.00 73
20260505114126 8 106 0.0 1.6 0.00 0.00 0.00 73
20260505113623 7 85 0.0 0.0 0.00 0.00 0.00 74
20260505113120 7 71 0.0 0.0 0.00 0.00 0.00 74
20260505112616 7 96 0.0 0.0 0.00 0.00 0.00 74
20260505112114 8 54 0.0 0.0 0.00 0.00 0.00 75
20260505111608 8 46 0.0 0.0 0.00 0.00 0.00 76
20260505111104 7 23 0.0 0.0 0.00 0.00 0.00 76
20260505110601 7 35 0.0 0.0 0.00 0.00 0.00 76
20260505102033 7 34 0.0 0.0 0.00 0.00 0.00 82
20260505101532 7 51 0.0 0.0 0.00 0.00 0.00 80
20260505101027 7 57 0.0 0.0 0.00 0.00 0.00 79
20260505100525 8 79 0.0 0.0 0.00 0.00 0.00 79
20260505100021 7 89 0.0 0.0 0.00 0.00 0.00 79
20260505095517 7 62 0.0 0.0 0.00 0.00 0.00 79
20260505095014 8 32 0.0 0.0 0.00 0.00 0.00 78
20260505094511 8 76 0.0 0.0 0.00 0.00 0.00 76
20260505094007 8 65 0.0 0.0 0.00 0.00 0.00 75
20260505093503 8 56 0.0 0.0 0.00 0.00 0.00 74
20260505093001 9 99 0.0 0.0 0.00 0.00 0.00 73
20260505092458 8 121 0.0 0.0 0.00 0.00 0.00 74
20260505091956 8 93 0.0 0.0 0.00 0.00 0.00 73
20260505091453 9 100 0.0 0.0 0.00 0.00 0.00 73
20260505090951 9 94 0.0 0.0 0.00 0.00 0.00 72
20260505090449 9 94 0.0 0.0 0.00 0.00 0.00 72
20260505085946 9 93 0.0 0.0 0.00 0.00 0.00 71
20260505085444 10 95 0.0 0.0 0.00 0.00 0.00 70
20260505084942 10 81 0.0 0.0 0.00 0.00 0.00 70
20260505084440 10 101 0.0 1.6 0.00 0.00 0.00 70
20260505083937 10 101 0.0 1.6 0.00 0.00 0.00 69
20260505083434 10 97 0.0 1.6 0.00 0.00 0.00 69
20260505082931 10 119 0.0 1.6 0.00 0.00 0.00 68
20260505082426 10 89 0.0 0.0 0.00 0.00 0.00 68
20260505081924 10 110 0.0 1.6 0.00 0.00 0.00 67
20260505081421 10 103 0.0 0.0 0.00 0.00 0.00 67
20260505080917 10 89 0.0 1.6 0.00 0.00 0.00 65
20260505080413 11 121 0.0 1.6 0.00 0.00 0.00 64
20260505075909 11 95 0.0 1.6 0.00 0.00 0.00 61
20260505075406 11 94 0.0 1.6 0.00 0.00 0.00 62
20260505074903 11 115 0.0 0.0 0.00 0.00 0.00 63
20260505074400 11 134 0.0 0.0 0.00 0.00 0.00 62
20260505073857 11 93 0.0 0.0 0.00 0.00 0.00 61
20260505073355 11 343 0.0 0.0 0.00 0.00 0.00 61
20260505072852 11 30 0.0 0.0 0.00 0.00 0.00 60
20260505072348 12 54 0.0 0.0 0.00 0.00 0.00 58
20260505071844 12 292 1.6 1.6 0.00 0.00 0.00 59
20260505071341 11 303 0.0 0.0 0.00 0.00 0.00 61
20260505070839 12 269 0.0 0.0 0.00 0.00 0.00 60
20260505070335 12 257 0.0 0.0 0.00 0.00 0.00 61
20260505065830 12 22 0.0 1.6 0.00 0.00 0.00 59
20260505065327 12 27 0.0 0.0 0.00 0.00 0.00 60
20260505064825 12 2 0.0 0.0 0.00 0.00 0.00 60
20260505064321 12 355 0.0 1.6 0.00 0.00 0.00 58
20260505063820 12 4 0.0 1.6 0.00 0.00 0.00 57
20260505063315 12 348 1.6 1.6 0.00 0.00 0.00 58
20260505062812 12 20 0.0 1.6 0.00 0.00 0.00 58
20260505062310 12 84 0.0 1.6 0.00 0.00 0.00 58
20260505061806 12 63 0.0 0.0 0.00 0.00 0.00 56
20260505061304 12 6 0.0 0.0 0.00 0.00 0.00 55
20260505060802 12 50 0.0 1.6 0.00 0.00 0.00 54
20260505060259 12 33 0.0 1.6 0.00 0.00 0.00 54
20260505055754 12 56 0.0 0.0 0.00 0.00 0.00 55
20260505055250 12 310 0.0 0.0 0.00 0.00 0.00 57
20260505054748 12 32 0.0 0.0 0.00 0.00 0.00 57
20260505054245 12 56 0.0 0.0 0.00 0.00 0.00 57
20260505053743 12 87 0.0 0.0 0.00 0.00 0.00 57
20260505053240 12 109 0.0 0.0 0.00 0.00 0.00 59
20260505052737 12 86 0.0 0.0 0.00 0.00 0.00 59
20260505052234 12 105 1.6 1.6 0.00 0.00 0.00 58
20260505051731 12 63 0.0 0.0 0.00 0.00 0.00 57
20260505051229 12 87 0.0 0.0 0.00 0.00 0.00 57
20260505050727 12 106 0.0 0.0 0.00 0.00 0.00 58
20260505050225 12 80 0.0 0.0 0.00 0.00 0.00 58
20260505041654 13 85 0.0 0.0 0.00 0.00 0.00 52
20260505041152 13 75 0.0 0.0 0.00 0.00 0.00 51
20260505040648 13 94 0.0 1.6 0.00 0.00 0.00 50
20260505040146 14 99 0.0 1.6 0.00 0.00 0.00 50
20260505035642 14 154 0.0 1.6 0.00 0.00 0.00 50
20260505035138 14 15 0.0 3.2 0.00 0.00 0.00 48
20260505034635 14 32 1.6 1.6 0.00 0.00 0.00 48
20260505034132 14 46 0.0 1.6 0.00 0.00 0.00 48
20260505033628 15 0 0.0 3.2 0.00 0.00 0.00 48
20260505033127 15 10 0.0 1.6 0.00 0.00 0.00 48
20260505032625 15 44 0.0 3.2 0.00 0.00 0.00 48
20260505032121 15 0 1.6 3.2 0.00 0.00 0.00 48
20260505031618 15 59 1.6 3.2 0.00 0.00 0.00 48
20260505031114 15 14 1.6 3.2 0.00 0.00 0.00 48
20260505030611 15 54 1.6 3.2 0.00 0.00 0.00 48
20260505030107 15 26 0.0 3.2 0.00 0.00 0.00 47
20260505025603 15 31 1.6 3.2 0.00 0.00 0.00 47
20260505025102 15 27 0.0 3.2 0.00 0.00 0.00 46
20260505024559 15 25 1.6 3.2 0.00 0.00 0.00 47
20260505024056 15 34 0.0 3.2 0.00 0.00 0.00 46
20260505023553 15 67 1.6 1.6 0.00 0.00 0.00 47
20260505023051 15 20 0.0 3.2 0.00 0.00 0.00 48
20260505022548 15 48 0.0 3.2 0.00 0.00 0.00 47
20260505022045 16 44 1.6 3.2 0.00 0.00 0.00 43
20260505021542 16 2 0.0 1.6 0.00 0.00 0.00 41
20260505021039 17 347 0.0 1.6 0.00 0.00 0.00 40
20260505020538 17 77 0.0 1.6 0.00 0.00 0.00 39
20260505020036 18 93 0.0 1.6 0.00 0.00 0.00 35
20260505015533 18 110 0.0 0.0 0.00 0.00 0.00 31
20260505015029 19 247 0.0 0.0 0.00 0.00 0.00 30
20260505014526 20 217 0.0 0.0 0.00 0.00 0.00 29
20260505014024 20 349 0.0 0.0 0.00 0.00 0.00 28
20260505013521 20 344 0.0 1.6 0.00 0.00 0.00 29
20260505013018 19 309 0.0 1.6 0.00 0.00 0.00 30
20260505012516 20 330 0.0 1.6 0.00 0.00 0.00 29
20260505012013 20 328 0.0 1.6 0.00 0.00 0.00 28
20260505011508 20 326 1.6 3.2 0.00 0.00 0.00 27
20260505011005 20 298 0.0 1.6 0.00 0.00 0.00 28
20260505010501 21 292 1.6 1.6 0.00 0.00 0.00 27
20260505005957 21 300 1.6 1.6 0.00 0.00 0.00 27
20260505005454 21 292 1.6 3.2 0.00 0.00 0.00 26
20260505004952 21 275 1.6 1.6 0.00 0.00 0.00 26
20260505004448 21 292 1.6 1.6 0.00 0.00 0.00 27
20260505003945 21 294 0.0 1.6 0.00 0.00 0.00 26
20260505003442 21 288 1.6 1.6 0.00 0.00 0.00 25
20260505002938 21 286 0.0 1.6 0.00 0.00 0.00 25
20260505002435 21 299 0.0 1.6 0.00 0.00 0.00 24
20260505001933 21 308 0.0 1.6 0.00 0.00 0.00 24
20260505001431 21 303 0.0 1.6 0.00 0.00 0.00 24
20260505000927 21 289 0.0 1.6 0.00 0.00 0.00 24
20260505000427 21 286 0.0 1.6 0.00 0.00 0.00 24
20260504235922 21 298 1.6 3.2 0.00 0.00 0.00 22
20260504235420 21 295 1.6 3.2 0.00 0.00 0.00 22
20260504234915 22 298 1.6 1.6 0.00 0.00 0.00 23
20260504234413 22 302 1.6 1.6 0.00 0.00 0.00 23
20260504233909 22 324 1.6 3.2 0.00 0.00 0.00 23
20260504233405 22 281 1.6 1.6 0.00 0.00 0.00 23
20260504232902 22 268 1.6 1.6 0.00 0.00 0.00 22
20260504232359 22 275 1.6 1.6 0.00 0.00 0.00 22
20260504231856 22 317 1.6 3.2 0.00 0.00 0.00 22
20260504231352 22 213 1.6 1.6 0.00 0.00 0.00 22
20260504230849 22 216 0.0 1.6 0.00 0.00 0.00 22
20260504230346 22 284 1.6 1.6 0.00 0.00 0.00 21
20260504225845 22 204 0.0 1.6 0.00 0.00 0.00 21
20260504225341 22 229 0.0 1.6 0.00 0.00 0.00 21
20260504224839 22 293 0.0 1.6 0.00 0.00 0.00 22
20260504224335 22 267 0.0 1.6 0.00 0.00 0.00 21
20260504223832 22 223 0.0 1.6 0.00 0.00 0.00 21
20260504223327 22 283 1.6 3.2 0.00 0.00 0.00 20
20260504222824 22 269 0.0 3.2 0.00 0.00 0.00 21
20260504222321 22 261 0.0 1.6 0.00 0.00 0.00 21
20260504221820 22 237 1.6 1.6 0.00 0.00 0.00 21
20260504221316 22 211 0.0 1.6 0.00 0.00 0.00 21
20260504220813 22 290 1.6 3.2 0.00 0.00 0.00 21
20260504220310 22 237 0.0 1.6 0.00 0.00 0.00 23
20260504215808 21 273 1.6 3.2 0.00 0.00 0.00 23
20260504215304 21 260 0.0 3.2 0.00 0.00 0.00 24
20260504214759 21 253 0.0 3.2 0.00 0.00 0.00 24
20260504214256 21 302 1.6 3.2 0.00 0.00 0.00 23
20260504213753 22 303 0.0 3.2 0.00 0.00 0.00 24
20260504213249 22 272 1.6 1.6 0.00 0.00 0.00 24
20260504212746 22 256 0.0 1.6 0.00 0.00 0.00 23
20260504212243 21 286 0.0 3.2 0.00 0.00 0.00 23
20260504211740 21 178 0.0 1.6 0.00 0.00 0.00 22
20260504211236 22 312 0.0 3.2 0.00 0.00 0.00 24
20260504210734 22 275 1.6 3.2 0.00 0.00 0.00 23
20260504210231 22 218 1.6 1.6 0.00 0.00 0.00 23
20260504205728 22 162 0.0 1.6 0.00 0.00 0.00 23
20260504205226 22 265 0.0 1.6 0.00 0.00 0.00 24
20260504204724 22 245 0.0 1.6 0.00 0.00 0.00 25
20260504204222 22 209 1.6 1.6 0.00 0.00 0.00 24
20260504203721 21 203 1.6 1.6 0.00 0.00 0.00 25
20260504203218 22 279 1.6 3.2 0.00 0.00 0.00 25
20260504202718 21 275 1.6 3.2 0.00 0.00 0.00 25
20260504202215 22 303 1.6 3.2 0.00 0.00 0.00 26
20260504201712 21 281 1.6 3.2 0.00 0.00 0.00 25
20260504201209 22 281 0.0 3.2 0.00 0.00 0.00 27
20260504200707 22 230 0.0 3.2 0.00 0.00 0.00 25
20260504200203 22 211 1.6 3.2 0.00 0.00 0.00 23
20260504195659 22 273 1.6 3.2 0.00 0.00 0.00 20
20260504195155 22 295 1.6 3.2 0.00 0.00 0.00 22
20260504194652 21 265 1.6 3.2 0.00 0.00 0.00 24
20260504194148 22 285 3.2 3.2 0.00 0.00 0.00 24
20260504193645 21 299 0.0 1.6 0.00 0.00 0.00 25
20260504193143 21 289 0.0 3.2 0.00 0.00 0.00 25
20260504192640 21 281 1.6 3.2 0.00 0.00 0.00 24
20260504192138 21 274 1.6 3.2 0.00 0.00 0.00 23
20260504191637 21 265 1.6 1.6 0.00 0.00 0.00 20
20260504191132 22 225 0.0 3.2 0.00 0.00 0.00 20
20260504190629 22 316 0.0 1.6 0.00 0.00 0.00 21
20260504190125 22 303 0.0 3.2 0.00 0.00 0.00 19
20260504185622 23 287 0.0 1.6 0.00 0.00 0.00 19
20260504185118 22 275 1.6 3.2 0.00 0.00 0.00 20
20260504184614 21 282 0.0 1.6 0.00 0.00 0.00 20
20260504184109 22 224 1.6 3.2 0.00 0.00 0.00 19
20260504183607 22 285 0.0 1.6 0.00 0.00 0.00 19
20260504183105 23 315 3.2 3.2 0.00 0.00 0.00 18
20260504182602 23 280 1.6 1.6 0.00 0.00 0.00 18
20260504182059 22 211 0.0 1.6 0.00 0.00 0.00 20
20260504181556 22 256 0.0 1.6 0.00 0.00 0.00 20
20260504181054 22 282 0.0 1.6 0.00 0.00 0.00 21
20260504180553 22 257 1.6 1.6 0.00 0.00 0.00 19
20260504180051 22 326 1.6 1.6 0.00 0.00 0.00 18
20260504175548 22 320 1.6 3.2 0.00 0.00 0.00 17
20260504175045 21 335 1.6 3.2 0.00 0.00 0.00 19
20260504174543 21 308 1.6 1.6 0.00 0.00 0.00 19
20260504174039 22 339 1.6 3.2 0.00 0.00 0.00 19
20260504173536 21 321 1.6 3.2 0.00 0.00 0.00 19
20260504173034 22 327 1.6 3.2 0.00 0.00 0.00 20
20260504172530 21 289 1.6 3.2 0.00 0.00 0.00 20
20260504172026 21 302 1.6 3.2 0.00 0.00 0.00 22
20260504171524 21 291 1.6 1.6 0.00 0.00 0.00 23
20260504171021 21 252 1.6 3.2 0.00 0.00 0.00 22
20260504170516 21 263 1.6 3.2 0.00 0.00 0.00 22
20260504160437 20 267 1.6 3.2 0.00 0.00 0.00 28
20260504150900 18 274 1.6 3.2 0.00 0.00 0.00 28
20260504150357 18 278 1.6 3.2 0.00 0.00 0.00 29